Date,TemperatureHighF,TemperatureAvgF,TemperatureLowF,DewpointHighF,DewpointAvgF,DewpointLowF,HumidityHigh,HumidityAvg,HumidityLow,PressureMaxIn,PressureMinIn,WindSpeedMaxMPH,WindSpeedAvgMPH,GustSpeedMaxMPH,PrecipitationSumIn
2013-3-1,66.2,62.5,58.8,57.0,51.2,46.5,84,67,55,29.93,29.84,10,4,15,0.00
2013-3-2,66.6,58.6,52.9,48.5,41.7,35.0,69,54,39,29.98,29.89,17,6,25,0.00
2013-3-3,62.8,55.2,50.0,46.4,42.2,39.3,81,63,44,30.09,29.90,14,5,21,0.01
2013-3-4,69.6,55.4,43.5,43.5,37.1,32.8,72,52,29,30.16,30.06,14,4,23,0.00
2013-3-5,79.2,64.8,48.9,57.9,52.2,43.3,88,66,45,30.13,30.02,8,2,14,0.00
2013-3-6,80.1,66.8,53.1,64.8,50.8,22.8,89,60,21,30.05,29.88,15,6,26,0.00
2013-3-7,75.2,60.4,48.0,54.6,43.8,34.6,83,56,32,30.13,30.01,11,4,19,0.00
2013-3-8,58.5,55.0,54.7,53.3,51.1,50.9,88,87,82,30.10,30.07,4,2,6,0.00
2013-3-9,54.7,54.7,54.7,50.9,50.9,50.9,87,87,87,30.07,30.07,2,2,4,0.00
2013-3-10,54.7,54.7,54.7,50.9,50.9,50.9,87,87,87,30.07,30.07,2,2,4,0.00
2013-3-11,54.7,54.7,54.7,50.9,50.9,50.9,87,87,87,30.07,30.07,2,2,4,0.00
2013-3-12,54.7,54.7,54.7,50.9,50.9,50.9,87,87,87,30.07,30.07,2,2,4,0.00
2013-3-13,54.7,54.7,54.7,50.9,50.9,50.9,87,87,87,30.07,30.07,2,2,4,0.00
2013-3-14,54.7,54.7,54.7,50.9,50.9,50.9,87,87,87,30.07,30.07,2,2,4,0.00
2013-3-16,68.7,66.6,63.7,55.0,53.8,52.5,67,63,59,30.05,29.91,12,2,16,1.07
2013-3-17,80.8,69.4,57.7,62.0,57.6,51.6,86,67,48,29.95,29.81,11,2,18,0.00
2013-3-18,82.9,73.4,65.5,70.7,65.1,59.2,90,76,60,29.87,29.75,12,3,21,0.04
2013-3-19,82.8,74.0,68.0,69.8,67.6,64.5,93,81,58,29.81,29.59,14,2,24,0.01
2013-3-20,87.1,74.0,65.1,73.0,65.1,58.5,93,75,51,29.78,29.59,14,2,26,0.00
2013-3-21,79.2,68.6,59.0,62.3,52.6,35.4,90,61,22,29.74,29.62,11,4,17,0.00
2013-3-22,79.0,68.9,55.6,69.7,59.4,49.7,89,73,53,29.81,29.70,9,2,17,0.00
2013-3-23,89.4,79.3,71.6,74.7,71.6,68.7,92,78,52,29.78,29.59,11,3,21,0.02
2013-3-24,90.9,81.3,74.8,73.8,71.5,68.0,92,74,51,29.68,29.47,19,6,32,0.00
2013-3-25,81.1,75.4,66.2,73.8,60.2,41.0,91,63,32,29.79,29.53,14,5,21,0.04
2013-3-26,69.1,61.6,52.5,44.5,37.3,25.4,59,41,22,30.01,29.77,15,8,26,0.00
2013-3-27,71.2,58.1,46.8,47.3,40.7,34.4,71,54,31,30.05,29.96,14,5,20,0.00
2013-3-28,75.6,62.9,52.2,50.8,43.5,33.8,72,51,29,30.07,29.96,12,4,16,0.00
2013-3-29,77.9,67.0,58.1,52.9,48.8,40.7,64,53,36,30.09,29.99,13,4,20,0.00
2013-3-30,79.7,69.3,55.9,56.4,51.5,47.3,81,55,35,30.07,29.95,11,2,18,0.00
2013-3-31,83.1,73.9,66.4,66.5,61.6,53.5,82,66,50,29.99,29.84,12,3,20,0.00